Main page
METAR-TAF:

METAR-TAF

Airports :

Altus/Quartz Mountain Regional Airport

Altus, Oklahoma, United States

latitude: 34-41-55N, longitude: 099-20-17W, elevation: 1433 ft

Current weather observation

The report was made 19 minutes ago, at 19:35 UTC
Wind 9 mph from the South with gusts up to 24 mph
Temperature 93°F
Humidity 36%
Pressure 29.87 in. Hg
Visibility: 10 miles
Clear sky

METAR: KAXS 151935Z AUTO 17008G21KT 10SM CLR 34/17 A2987 RMK AO2

Time: 14:54 (19:54 UTC)


TAF: missing

Weather observations and forecasts of more than 4000 airports (METAR and TAF reports).

The available stations are represented by yellow and red dots on the map.

Hover mouse over dot to see the name of the station.

Then click to see weather observations and forecasts.

To change the map : click on the green buttons with a black cross to zoom in, on the green button with a dash to zoom out, or on the green arrows for adjacent maps.


METAR-TAF: